Location: Riddle Hill
(39.7867°N, 89.7645°W)
Time: 21:12:59
(UTC+00:00)

CZ-4B R/B - Pass Details

Date: 29 October 2020
Orbit: 388 x 461 km, 97.6° (Epoch: 01 December)

Event Time Altitude Azimuth Distance (km) Brightness Sun altitude
Rises 23:21:49 0° 16° (NNE) 2,369 4.8 -4.9°
Reaches altitude 10° 23:23:52 10° 21° (NNE) 1,487 3.7 -5.3°
Maximum altitude 23:26:59 54° 100° (E) 496 1.3 -5.9°
Drops below altitude 10° 23:30:00 10° 180° (S) 1,441 4.1 -6.4°
Sets 23:31:58 0° 185° (S) 2,284 5.2 -6.8°
